WA8VZY Weather Reports


time (UTC)temp
C
wind
direction
speed
KPH
gust
KPH
rain 1hr
cm
rain 24hr
cm
rain mn
cm
humidity
%
barometer
mb
20260906073707 22 74 8.0 20.9 0.00 0.00 0.00 91 1013.4
20260906073421 22 67 6.4 17.7 0.00 0.00 0.00 91 1013.5
20260906072914 22 13 6.4 25.7 0.00 0.00 0.00 91 1013.5
20260906072148 22 67 8.0 25.7 0.00 0.00 0.00 91 1013.5
20260906071638 22 311 6.4 20.9 0.00 0.00 0.00 91 1013.5
20260906071133 22 77 6.4 17.7 0.00 0.00 0.00 91 1013.5
20260906070621 22 91 6.4 17.7 0.00 0.00 0.00 91 1013.5
20260906070336 22 75 4.8 16.1 0.00 0.00 0.00 91 1013.5
20260906065610 22 48 4.8 16.1 0.00 0.00 0.00 92 1013.5
20260906065100 22 105 4.8 16.1 0.00 0.00 0.00 92 1013.4
20260906064558 22 75 4.8 16.1 0.00 0.00 0.00 92 1013.5
20260906064053 22 57 4.8 16.1 0.00 0.00 0.00 92 1013.4
20260906063548 22 29 4.8 16.1 0.00 0.00 0.00 92 1013.5
20260906063042 22 34 4.8 12.9 0.00 0.00 0.00 92 1013.6
20260906062531 22 65 4.8 17.7 0.00 0.00 0.00 92 1013.6
20260906062029 22 50 3.2 17.7 0.00 0.00 0.00 92 1013.5
20260906061523 22 92 3.2 11.3 0.00 0.00 0.00 92 1013.6
20260906061234 22 72 3.2 12.9 0.00 0.00 0.00 91 1013.6
20260906060728 22 59 3.2 14.5 0.00 0.00 0.00 91 1013.6
20260906060006 22 82 4.8 16.1 0.00 0.00 0.00 91 1013.5
20260906055459 22 61 4.8 16.1 0.00 0.00 0.00 91 1013.5
20260906054949 23 80 4.8 16.1 0.00 0.00 0.00 91 1013.5
20260906054446 23 49 4.8 14.5 0.00 0.00 0.00 91 1013.5
20260906053940 23 20 3.2 14.5 0.00 0.00 0.00 91 1013.5
20260906053435 23 336 3.2 14.5 0.00 0.00 0.00 91 1013.5
20260906052929 23 69 4.8 14.5 0.00 0.00 0.00 91 1013.4
20260906052417 23 101 4.8 14.5 0.00 0.00 0.00 91 1013.5
20260906051915 23 19 4.8 17.7 0.00 0.00 0.00 90 1013.4
20260906051410 23 90 4.8 17.7 0.00 0.00 0.00 91 1013.4
20260906050904 23 94 4.8 16.1 0.00 0.00 0.00 91 1013.2
20260906050359 23 24 4.8 17.7 0.00 0.00 0.00 91 1013.2
20260906045852 23 89 4.8 17.7 0.00 0.00 0.00 91 1013.1
20260906045346 23 66 4.8 14.5 0.00 0.00 0.00 91 1013.0
20260906044836 23 59 3.2 12.9 0.00 0.00 0.00 90 1013.1
20260906044334 23 92 3.2 12.9 0.00 0.00 0.00 90 1013.1
20260906043829 23 84 3.2 14.5 0.00 0.00 0.00 90 1013.1
20260906043322 23 75 3.2 14.5 0.00 0.00 0.00 89 1013.1
20260906042816 23 5 3.2 11.3 0.00 0.00 0.00 88 1013.0
20260906042307 23 57 3.2 12.9 0.00 0.00 0.00 88 1012.9
20260906041805 23 71 3.2 12.9 0.00 0.00 0.00 87 1012.8
20260906041300 23 316 3.2 11.3 0.00 0.00 0.00 87 1012.8
20260906040751 23 55 1.6 11.3 0.00 0.00 0.00 86 1012.8
20260906040249 23 49 3.2 9.7 0.00 0.00 0.00 86 1012.9
20260906035740 23 53 4.8 12.9 0.00 0.00 0.00 85 1012.8
20260906035230 23 46 6.4 12.9 0.00 0.00 0.00 85 1012.7
20260906034728 23 98 6.4 14.5 0.00 0.00 0.00 84 1012.7
20260906034217 23 71 9.7 16.1 0.00 0.00 0.00 84 1012.7
20260906033716 23 93 9.7 16.1 0.00 0.00 0.00 83 1012.6
20260906033210 23 104 9.7 17.7 0.00 0.00 0.00 83 1012.5
20260906032659 24 84 11.3 17.7 0.00 0.00 0.00 82 1012.5
20260906032155 24 98 9.7 17.7 0.00 0.00 0.00 81 1012.5
20260906031914 24 106 8.0 16.1 0.00 0.00 0.00 81 1012.5
20260906031143 24 98 8.0 16.1 0.00 0.00 0.00 80 1012.5
20260906030637 24 84 8.0 16.1 0.00 0.00 0.00 79 1012.5
20260906030131 24 86 6.4 17.7 0.00 0.00 0.00 79 1012.5
20260906025619 24 0 6.4 17.7 0.00 0.00 0.00 79 1012.7
20260906025119 25 78 4.8 16.1 0.00 0.00 0.00 78 1012.7
20260906024830 25 76 4.8 16.1 0.00 0.00 0.00 78 1012.7
20260906024328 25 88 6.4 17.7 0.00 0.00 0.00 77 1012.7
20260906023601 25 34 6.4 17.7 0.00 0.00 0.00 77 1012.6
20260906023054 25 44 4.8 14.5 0.00 0.00 0.00 77 1012.6
20260906022548 25 57 6.4 17.7 0.00 0.00 0.00 77 1012.7
20260906022301 25 5 8.0 17.7 0.00 0.00 0.00 77 1012.6
20260906021533 25 54 8.0 24.1 0.00 0.00 0.00 77 1012.5
20260906021025 25 80 8.0 24.1 0.00 0.00 0.00 77 1012.4
20260906021004 25 97 6.4 16.1 0.00 0.00 0.00 77 1012.2
20260906020008 25 90 4.8 14.5 0.00 0.00 0.00 77 1012.1
20260906015729 25 84 3.2 12.9 0.00 0.00 0.00 77 1012.0
20260906014957 26 77 3.2 11.3 0.00 0.00 0.00 77 1012.0
20260906014708 26 41 3.2 11.3 0.00 0.00 0.00 77 1011.9
20260906013945 26 114 3.2 8.0 0.00 0.00 0.00 77 1011.7
20260906013440 26 40 3.2 14.5 0.00 0.00 0.00 77 1011.7
20260906012933 26 53 3.2 14.5 0.00 0.00 0.00 77 1011.7
20260906012428 26 75 3.2 8.0 0.00 0.00 0.00 76 1011.6
20260906012139 26 94 3.2 19.3 0.00 0.00 0.00 76 1011.5
20260906011417 26 44 6.4 19.3 0.00 0.00 0.00 75 1011.5
20260906010905 27 47 6.4 22.5 0.00 0.00 0.00 75 1011.3
20260906010404 27 51 4.8 22.5 0.00 0.00 0.00 74 1011.3
20260906005858 27 38 4.8 19.3 0.00 0.00 0.00 75 1011.2
20260906005352 27 79 4.8 11.3 0.00 0.00 0.00 77 1011.1
20260906004845 27 46 3.2 11.3 0.00 0.00 0.00 76 1011.0
20260906004554 28 62 3.2 16.1 0.00 0.00 0.00 77 1010.9
20260906004101 28 98 4.8 16.1 0.00 0.00 0.00 76 1010.8
20260906003328 28 65 6.4 20.9 0.00 0.00 0.00 76 1010.8
20260906002817 28 20 4.8 19.3 0.00 0.00 0.00 75 1010.7
20260906002315 28 38 4.8 9.7 0.00 0.00 0.00 76 1010.7
20260906001809 29 30 4.8 9.7 0.00 0.00 0.00 75 1010.7
20260906001304 29 9 4.8 9.7 0.00 0.00 0.00 75 1010.6
20260906000752 29 45 4.8 11.3 0.00 0.00 0.00 74 1010.7
20260906000251 29 28 4.8 11.3 0.00 0.00 0.00 74 1010.7
20260905235745 30 32 4.8 11.3 0.00 0.00 0.00 73 1010.6
20260905235239 30 19 4.8 8.0 0.00 0.00 0.00 72 1010.7
20260905234734 30 9 4.8 8.0 0.00 0.00 0.00 71 1010.7
20260905234442 30 336 4.8 8.0 0.00 0.00 0.00 69 1010.7
20260905233935 30 338 3.2 8.0 0.00 0.00 0.00 68 1010.7
20260905233215 30 350 3.2 6.4 0.00 0.00 0.00 68 1010.8
20260905232709 30 334 3.2 6.4 0.00 0.00 0.00 69 1010.9
20260905232203 30 351 1.6 6.4 0.00 0.00 0.00 70 1010.9
20260905231653 31 336 0.0 3.2 0.00 0.00 0.00 70 1010.9
20260905231152 31 55 0.0 3.2 0.00 0.00 0.00 71 1011.0
20260905230903 30 42 0.0 3.2 0.00 0.00 0.00 71 1010.9
20260905230140 30 345 1.6 3.2 0.00 0.00 0.00 71 1010.9
20260905225633 30 12 1.6 3.2 0.00 0.00 0.00 68 1011.0
20260905225127 30 28 1.6 3.2 0.00 0.00 0.00 69 1011.0
20260905224618 31 31 1.6 3.2 0.00 0.00 0.00 70 1010.8
20260905224112 31 26 1.6 3.2 0.00 0.00 0.00 69 1010.7
20260905223610 31 350 1.6 3.2 0.00 0.00 0.00 68 1010.6
20260905223103 31 350 0.0 3.2 0.00 0.00 0.00 70 1010.4
20260905222557 31 350 0.0 3.2 0.00 0.00 0.00 69 1010.5
20260905222051 31 342 0.0 3.2 0.00 0.00 0.00 67 1010.6
20260905221800 31 38 0.0 3.2 0.00 0.00 0.00 66 1010.6
20260905221040 31 39 0.0 3.2 0.00 0.00 0.00 67 1010.4
20260905220755 31 350 0.0 3.2 0.00 0.00 0.00 65 1010.4
20260905220249 31 317 0.0 3.2 0.00 0.00 0.00 66 1010.5
20260905215516 31 332 0.0 3.2 0.00 0.00 0.00 65 1010.5
20260905215015 31 311 0.0 3.2 0.00 0.00 0.00 64 1010.7
20260905214510 32 315 0.0 3.2 0.00 0.00 0.00 63 1010.7
20260905213959 32 334 0.0 3.2 0.00 0.00 0.00 63 1010.7
20260905213458 32 321 0.0 8.0 0.00 0.00 0.00 62 1010.7
20260905212951 32 296 0.0 8.0 0.00 0.00 0.00 61 1010.5
20260905212446 32 317 1.6 8.0 0.00 0.00 0.00 60 1010.5
20260905211940 32 13 1.6 8.0 0.00 0.00 0.00 60 1010.7
20260905211429 33 0 1.6 8.0 0.00 0.00 0.00 59 1010.8
20260905210928 33 355 3.2 9.7 0.00 0.00 0.00 57 1010.8
20260905210418 33 341 3.2 9.7 0.00 0.00 0.00 56 1010.8
20260905205915 33 239 3.2 12.9 0.00 0.00 0.00 56 1010.9
20260905205410 33 293 3.2 12.9 0.00 0.00 0.00 56 1010.9
20260905205123 33 324 3.2 9.7 0.00 0.00 0.00 57 1011.0
20260905204359 33 336 4.8 11.3 0.00 0.00 0.00 57 1011.1
20260905203848 33 343 4.8 11.3 0.00 0.00 0.00 56 1011.1
20260905203345 33 355 1.6 11.3 0.00 0.00 0.00 55 1011.2
20260905202839 34 332 3.2 9.7 0.00 0.00 0.00 54 1011.2
20260905202332 34 340 1.6 9.7 0.00 0.00 0.00 54 1011.3
20260905202050 34 316 3.2 9.7 0.00 0.00 0.00 54 1011.4
20260905201316 34 304 1.6 9.7 0.00 0.00 0.00 54 1011.5
20260905200815 34 329 1.6 4.8 0.00 0.00 0.00 56 1011.5
20260905200310 33 296 1.6 6.4 0.00 0.00 0.00 57 1011.5
20260905195803 33 310 3.2 8.0 0.00 0.00 0.00 55 1011.6
20260905195257 33 287 3.2 8.0 0.00 0.00 0.00 56 1011.6
20260905194751 33 0 3.2 12.9 0.00 0.00 0.00 55 1011.6
20260905194245 33 315 4.8 12.9 0.00 0.00 0.00 56 1011.6
20260905193734 33 336 3.2 8.0 0.00 0.00 0.00 58 1011.7
20260905193233 33 311 1.6 11.3 0.00 0.00 0.00 55 1011.7
20260905192728 33 273 3.2 11.3 0.00 0.00 0.00 57 1011.9
20260905192217 33 227 3.2 11.3 0.00 0.00 0.00 56 1012.0
20260905191715 33 234 3.2 11.3 0.00 0.00 0.00 56 1012.1
20260905191205 33 331 6.4 14.5 0.00 0.00 0.00 55 1012.1
20260905190705 32 269 6.4 14.5 0.00 0.00 0.00 58 1012.1
20260905190153 32 273 4.8 12.9 0.00 0.00 0.00 55 1012.2
20260905185651 32 210 4.8 11.3 0.00 0.00 0.00 56 1012.2
20260905185146 32 239 4.8 11.3 0.00 0.00 0.00 56 1012.4
20260905184854 32 230 6.4 11.3 0.00 0.00 0.00 58 1012.5
20260905184134 32 321 4.8 11.3 0.00 0.00 0.00 55 1012.5
20260905183628 32 254 4.8 12.9 0.00 0.00 0.00 56 1012.6
20260905183116 31 252 8.0 14.5 0.00 0.00 0.00 59 1012.7
20260905182615 31 251 9.7 17.7 0.00 0.00 0.00 57 1012.8
20260905182102 31 223 9.7 17.7 0.00 0.00 0.00 56 1012.8
20260905181601 31 241 8.0 17.7 0.00 0.00 0.00 57 1012.8
20260905181055 31 227 9.7 17.7 0.00 0.00 0.00 57 1012.8
20260905180549 31 213 8.0 17.7 0.00 0.00 0.00 56 1012.7
20260905180044 31 248 9.7 16.1 0.00 0.00 0.00 57 1012.7
20260905175533 31 259 9.7 17.7 0.00 0.00 0.00 58 1012.7
20260905175032 31 245 9.7 17.7 0.00 0.00 0.00 57 1012.8
20260905174526 31 199 9.7 17.7 0.00 0.00 0.00 58 1012.9
20260905174019 31 250 9.7 17.7 0.00 0.00 0.00 57 1012.9
20260905173513 30 227 6.4 17.7 0.00 0.00 0.00 58 1013.1
20260905173003 31 244 4.8 11.3 0.00 0.00 0.00 58 1013.1
20260905172501 30 175 6.4 12.9 0.00 0.00 0.00 59 1013.2
20260905171951 30 209 6.4 14.5 0.00 0.00 0.00 59 1013.4
20260905171712 30 222 4.8 14.5 0.00 0.00 0.00 59 1013.5
20260905170943 30 228 3.2 11.3 0.00 0.00 0.00 58 1013.6
20260905170437 30 219 4.8 16.1 0.00 0.00 0.00 58 1013.7
20260905170153 30 244 8.0 16.1 0.00 0.00 0.00 56 1013.8
20260905165421 30 211 8.0 16.1 0.00 0.00 0.00 57 1013.8
20260905164920 30 231 6.4 16.1 0.00 0.00 0.00 57 1013.8
20260905164413 30 233 4.8 14.5 0.00 0.00 0.00 57 1013.9
20260905164127 30 221 6.4 16.1 0.00 0.00 0.00 59 1014.0
20260905163400 29 178 9.7 17.7 0.00 0.00 0.00 58 1014.0
20260905162850 29 232 9.7 17.7 0.00 0.00 0.00 57 1013.9
20260905162350 29 214 6.4 16.1 0.00 0.00 0.00 58 1013.8
20260905162331 29 253 6.4 16.1 0.00 0.00 0.00 58 1013.9
20260905161337 29 207 8.0 17.7 0.00 0.00 0.00 58 1013.8
20260905160831 29 236 8.0 17.7 0.00 0.00 0.00 56 1013.7
20260905160808 29 203 6.4 16.1 0.00 0.00 0.00 58 1013.6
20260905160038 29 176 6.4 16.1 0.00 0.00 0.00 57 1013.7
20260905155309 29 213 4.8 14.5 0.00 0.00 0.00 57 1013.9
20260905154807 29 179 4.8 11.3 0.00 0.00 0.00 58 1014.0
20260905154302 28 209 4.8 11.3 0.00 0.00 0.00 59 1014.1
20260905153756 28 173 6.4 12.9 0.00 0.00 0.00 59 1014.1
20260905153250 28 163 8.0 16.1 0.00 0.00 0.00 59 1014.0
20260905152743 28 183 9.7 16.1 0.00 0.00 0.00 60 1014.1
20260905152235 28 159 11.3 19.3 0.00 0.00 0.00 63 1014.0
20260905151729 27 180 11.3 19.3 0.00 0.00 0.00 60 1014.0
20260905151216 27 145 8.0 17.7 0.00 0.00 0.00 62 1014.1
20260905150713 27 186 8.0 16.1 0.00 0.00 0.00 63 1014.2
20260905150208 27 167 8.0 17.7 0.00 0.00 0.00 62 1014.2
20260905145921 27 151 11.3 20.9 0.00 0.00 0.00 64 1014.3
20260905145156 27 147 12.9 20.9 0.00 0.00 0.00 66 1014.2
20260905144650 26 145 12.9 20.9 0.00 0.00 0.00 65 1014.3
20260905144144 26 157 9.7 20.9 0.00 0.00 0.00 64 1014.3
20260905143638 26 160 11.3 20.9 0.00 0.00 0.00 66 1014.4
20260905143131 26 167 12.9 20.9 0.00 0.00 0.00 66 1014.5
20260905142625 26 169 9.7 19.3 0.00 0.00 0.00 67 1014.6
20260905142120 26 187 8.0 17.7 0.00 0.00 0.00 67 1014.5
20260905141835 26 169 9.7 19.3 0.00 0.00 0.00 69 1014.6
20260905141106 26 188 12.9 22.5 0.00 0.00 0.00 70 1014.6
20260905140600 25 181 14.5 22.5 0.00 0.00 0.00 69 1014.6
20260905140054 25 172 14.5 22.5 0.00 0.00 0.00 71 1014.6
20260905135548 25 161 16.1 20.9 0.00 0.00 0.00 71 1014.6
20260905135306 25 146 17.7 24.1 0.00 0.00 0.00 73 1014.6
20260905134536 25 169 16.1 29.0 0.00 0.00 0.00 72 1014.6
20260905134025 25 154 14.5 29.0 0.00 0.00 0.00 72 1014.7
20260905133523 24 202 14.5 20.9 0.00 0.00 0.00 74 1014.8
20260905133238 24 160 12.9 22.5 0.00 0.00 0.00 73 1014.8
20260905132505 24 144 14.5 22.5 0.00 0.00 0.00 74 1014.9
20260905132227 24 145 16.1 22.5 0.00 0.00 0.00 75 1014.9
20260905131457 24 164 14.5 22.5 0.00 0.00 0.00 75 1014.8
20260905130950 23 157 14.5 20.9 0.00 0.00 0.00 77 1014.9
20260905130444 23 159 12.9 20.9 0.00 0.00 0.00 76 1014.8
20260905130157 23 146 11.3 17.7 0.00 0.00 0.00 76 1014.9
20260905125658 23 198 12.9 19.3 0.00 0.00 0.00 76 1015.1
20260905124924 23 146 11.3 17.7 0.00 0.00 0.00 78 1014.9
20260905124418 23 165 11.3 17.7 0.00 0.00 0.00 79 1014.8
20260905123917 23 151 11.3 17.7 0.00 0.00 0.00 79 1014.9
20260905123418 22 143 12.9 19.3 0.00 0.00 0.00 80 1014.9
20260905123139 22 142 14.5 20.9 0.00 0.00 0.00 80 1014.7
20260905122902 22 132 12.9 20.9 0.00 0.00 0.00 81 1014.6
20260905122124 22 163 11.3 17.7 0.00 0.00 0.00 82 1014.9
20260905122009 22 153 11.3 17.7 0.00 0.00 0.00 82 1014.6
20260905121136 22 145 8.0 16.1 0.00 0.00 0.00 81 1014.9
20260905120417 22 143 8.0 20.9 0.00 0.00 0.00 82 1015.1
20260905115917 22 119 9.7 20.9 0.00 0.00 0.00 82 1014.8
20260905115905 22 119 9.7 20.9 0.00 0.00 0.00 81 1015.0
20260905114916 22 107 11.3 20.9 0.00 0.00 0.00 81 1014.8
20260905114639 22 123 11.3 25.7 0.00 0.00 0.00 81 1014.7
20260905113917 22 107 12.9 27.4 0.00 0.00 0.00 80 1014.7
20260905113413 22 117 12.9 27.4 0.00 0.00 0.00 80 1014.7
20260905113124 22 75 17.7 37.0 0.00 0.00 0.00 80 1014.7
20260905112352 22 130 17.7 30.6 0.00 0.00 0.00 80 1014.5
20260905111843 23 124 19.3 40.2 0.00 0.00 0.00 81 1014.6
20260905111342 23 88 19.3 41.8 0.00 0.00 0.00 83 1014.4
20260905110841 23 111 14.5 38.6 0.00 0.00 0.00 84 1014.3
20260905110341 23 94 12.9 29.0 0.00 0.00 0.00 89 1014.2
20260905105841 23 119 11.3 29.0 0.00 0.00 0.00 91 1013.9
20260905105608 24 81 6.4 14.5 0.00 0.00 0.00 91 1013.4
20260905104840 24 89 3.2 9.7 0.00 0.00 0.00 91 1012.9
20260905104341 24 102 3.2 4.8 0.00 0.00 0.00 91 1012.9
20260905103840 24 99 3.2 4.8 0.00 0.00 0.00 90 1013.0
20260905103340 24 94 3.2 4.8 0.00 0.00 0.00 90 1012.9
20260905102834 24 86 3.2 4.8 0.00 0.00 0.00 90 1013.0
20260905102543 24 82 3.2 4.8 0.00 0.00 0.00 90 1013.0
20260905101825 25 100 3.2 4.8 0.00 0.00 0.00 89 1013.1
20260905101541 25 110 1.6 3.2 0.00 0.00 0.00 89 1013.1
20260905100824 25 234 0.0 3.2 0.00 0.00 0.00 89 1013.1
20260905100322 25 234 0.0 3.2 0.00 0.00 0.00 89 1013.1
20260905095823 25 234 0.0 3.2 0.00 0.00 0.00 89 1013.0
20260905095322 25 234 0.0 3.2 0.00 0.00 0.00 89 1013.0
20260905094822 25 234 0.0 3.2 0.00 0.00 0.00 89 1013.0
20260905094324 25 234 0.0 3.2 0.00 0.00 0.00 89 1013.0
20260905093818 25 234 0.0 3.2 0.00 0.00 0.00 89 1012.9
20260905093307 25 234 1.6 1.6 0.00 0.00 0.00 89 1012.9
20260905092806 25 234 1.6 1.6 0.00 0.00 0.00 89 1012.9
20260905092307 25 234 1.6 1.6 0.00 0.00 0.00 89 1012.8
20260905091808 25 234 0.0 1.6 0.00 0.00 0.00 90 1012.9
20260905091306 25 273 0.0 1.6 0.00 0.00 0.00 90 1012.9
20260905090807 25 273 1.6 4.8 0.00 0.00 0.00 90 1012.9
20260905090526 25 250 1.6 6.4 0.00 0.00 0.00 90 1012.8
20260905090028 25 279 1.6 6.4 0.00 0.00 0.00 90 1012.9
20260905085308 25 168 3.2 4.8 0.00 0.00 0.00 90 1012.8
20260905084801 25 165 3.2 6.4 0.00 0.00 0.00 90 1012.7
20260905084255 25 163 3.2 6.4 0.00 0.00 0.00 90 1012.7
20260905083754 25 175 1.6 3.2 0.00 0.00 0.00 90 1012.6
20260905083513 25 170 1.6 3.2 0.00 0.00 0.00 90 1012.6
20260905082754 25 193 1.6 4.8 0.00 0.00 0.00 90 1012.6
20260905082254 25 171 3.2 6.4 0.00 0.00 0.00 90 1012.6
20260905081756 25 190 3.2 8.0 0.00 0.00 0.00 90 1012.5
20260905081255 25 196 3.2 8.0 0.00 0.00 0.00 90 1012.4
20260905080755 25 182 1.6 4.8 0.00 0.00 0.00 90 1012.4
20260905080255 25 208 1.6 4.8 0.00 0.00 0.00 90 1012.2
20260905075754 25 202 1.6 4.8 0.00 0.00 0.00 90 1012.1
20260905075255 25 227 1.6 6.4 0.00 0.00 0.00 90 1012.1
20260905074754 25 211 1.6 6.4 0.00 0.00 0.00 90 1012.1
20260905074255 25 223 3.2 6.4 0.00 0.00 0.00 89 1012.1